www.pogodaiklimat.ru

Погода и климат >> Архив погоды >> Кувейт >> Nuwasib


ПОГОДА в Nuwasib

  • Прогноз погоды в Nuwasib
  • Монитор погоды в Nuwasib
  • Климат города

АРХИВ ПОГОДЫ в Nuwasib

Время (UTC), дата Ветер
(напр.,м/с)
 
Видим.   Явления Облачность Т
(С)
Тd
(С)
f
(%)
Тe
(С)
Тes
(С)
Комфортность P
(гПа)
Po
(гПа)
Тmin
(С)
Tmax
(С)
R
(мм)
R24
(мм)
S
(см)
18 12.07 СЗ 2-4
{6}
н/о н/о +37.7 +4.1 13 +40 +40 очень
душно
994.5 995.0
21 12.07 СЗ 5-8
{9}
н/о н/о +39.2 +1.4 10 +36 +36 очень
жарко
994.3 994.0 +36.1 +46.0
00 13.07 С 3-6
{11}
н/о н/о +36.8 +2.8 12 +34 +34 очень
жарко
994.3 994.0
03 13.07 СЗ 4-7
{10}
н/о н/о +35.8 +3.3 13 +33 +33 жарко 994.9 995.0
06 13.07 С 8-14
{16}
н/о н/о +43.0 +3.6 9 +40 +40 очень
жарко
995.3 995.0
09 13.07 С 10-14
{16}
н/о н/о +44.3 +6.8 11 +42 +42 опасность
перегрева
994.7 995.0
12 13.07 С 7-11
{16}
н/о н/о +46.0 +4.6 8 +43 +43 опасность
перегрева
993.8 994.0
15 13.07 С 2-4
{11}
н/о н/о +43.8 +8.4 12 +42 +42 опасность
перегрева
993.5 994.0
18 13.07 СЗ 4-7
{11}
н/о н/о +41.9 +2.1 9 +38 +38 очень
жарко
995.6 996.0
21 13.07 СЗ 2-4
{7}
н/о н/о +36.6 +0.9 11 +33 +33 жарко 995.9 996.0 +35.8 +47.7
00 14.07 СЗ 2-4
{7}
н/о н/о +33.6 +1.9 13 +30 +30 жарко 995.3 995.0
03 14.07 З 2-3
{5}
н/о н/о +30.8 +3.6 18 +29 +29 жарко 996.4 996.0
06 14.07 С 4-6
{8}
н/о н/о +41.7 +3.0 9 +38 +38 очень
жарко
997.3 997.0
09 14.07 СВ 6-10
{10}
н/о н/о +42.7 +3.5 9 +39 +39 очень
жарко
996.8 997.0
12 14.07 СВ 4-8
{10}
н/о н/о +43.6 +8.5 12 +41 +41 опасность
перегрева
995.4 995.0
15 14.07 В 3-4
{8}
н/о н/о +41.7 +7.5 13 +39 +39 очень
жарко
994.9 995.0
18 14.07 СЗ 1-2
{8}
н/о н/о +38.0 +9.5 18 +36 +36 очень
жарко
996.3 996.0
21 14.07 СЗ 2-3
{4}
н/о н/о +33.8 +5.6 17 +31 +31 жарко 996.2 996.0 +30.5 +44.3
00 15.07 СЗ 3-5
{5}
н/о н/о +32.4 -0.5 12 +29 +29 жарко 996.0 996.0
03 15.07 СЗ 3-4
{5}
н/о н/о +31.5 -0.3 13 +28 +28 жарко 997.2 997.0
06 15.07 С 4-6
{6}
н/о н/о +42.7 -0.2 7 +39 +39 очень
жарко
998.1 998.0
09 15.07 СВ 4-8
{8}
н/о н/о +43.6 +2.5 8 +40 +40 очень
жарко
997.5 998.0
12 15.07 СВ 4-7
{9}
н/о н/о +42.8 +7.8 12 +40 +40 очень
жарко
996.1 996.0
15 15.07 В 3-3
{7}
н/о н/о +39.4 +9.7 17 +38 +38 очень
жарко
995.6 996.0
18 15.07 ЮЗ 3-4
{7}
н/о н/о +36.3 +4.2 14 +33 +33 жарко 996.7 997.0
21 15.07 СЗ 2-4
{5}
н/о н/о +35.6 +2.8 13 +32 +32 жарко 996.1 996.0 +30.2 +44.3
00 16.07 СЗ 3-5
{6}
н/о н/о +34.7 +0.9 12 +31 +31 жарко 995.3 995.0
03 16.07 СЗ 3-6
{6}
н/о н/о +34.7 +3.0 14 +32 +32 жарко 996.5 997.0
06 16.07 С 5-8
{8}
н/о н/о +42.4 +6.3 11 +40 +40 очень
жарко
996.7 997.0
09 16.07 СВ 6-11
{11}
н/о н/о +42.2 +14.3 20 +43 +43 опасность
перегрева
996.4 996.0
12 16.07 СВ 5-7
{11}
н/о н/о +42.7 +14.4 19 +43 +43 опасность
перегрева
995.0 995.0
15 16.07 З 2-4
{8}
н/о н/о +39.7 +15.3 24 +41 +41 опасность
перегрева
995.2 995.0
18 16.07 СЗ 3-8
{8}
н/о н/о +40.1 +1.4 9 +36 +36 очень
жарко
996.2 996.0
21 16.07 СЗ 5-9
{9}
н/о н/о +37.9 +1.0 10 +34 +34 очень
жарко
996.4 996.0 +33.7 +44.4
00 17.07 СЗ 3-6
{10}
н/о н/о +35.7 +4.4 14 +33 +33 жарко 996.0 996.0
03 17.07 З 3-5
{6}
н/о н/о +32.9 +4.8 17 +30 +30 жарко 996.9 997.0
06 17.07 С 4-7
{9}
н/о н/о +42.1 +4.6 10 +39 +39 очень
жарко
997.3 997.0
09 17.07 С 5-8
{11}
н/о н/о +43.6 +9.3 13 +42 +42 опасность
перегрева
996.6 997.0
12 17.07 СВ 5-11
{13}
н/о н/о +41.8 +5.8 11 +41 +41 опасность
перегрева
995.3 995.0
15 17.07 СЗ 6-13
{13}
н/о н/о +42.7 +1.0 8 +39 +39 очень
жарко
995.1 995.0
18 17.07 СЗ 4-8
{13}
н/о н/о +40.3 +1.6 9 +37 +37 очень
жарко
996.6 997.0
21 17.07 СЗ 3-5
{8}
н/о н/о +36.0 +1.0 11 +32 +32 жарко 996.8 997.0 +32.5 +46.5
00 18.07 СЗ 3-7
{8}
н/о н/о +34.7 +2.1 13 +32 +32 жарко 996.2 996.0
03 18.07 З 3-5
{7}
н/о н/о +32.3 +1.8 14 +29 +29 жарко 997.6 998.0
06 18.07 СЗ 5-10
{11}
н/о н/о +40.9 +0.5 8 +37 +37 очень
жарко
998.2 998.0
09 18.07 СЗ 5-12
{12}
н/о н/о +44.4 -0.9 6 +40 +40 очень
жарко
997.4 997.0
12 18.07 СЗ 4-8
{13}
н/о н/о +46.3 -3.2 5 +42 +42 опасность
перегрева
996.0 996.0
15 18.07 З 5-8
{11}
н/о н/о +42.8 -2.1 6 +39 +39 очень
жарко
996.0 996.0
18 18.07 З 2-4
{11}
н/о н/о +36.9 -0.3 10 +33 +33 жарко 997.6 998.0
21 18.07 З 3-5
{5}
н/о н/о +34.2 -1.1 10 +30 +30 жарко 997.4 997.0 +31.7 +46.6
00 19.07 З 3-5
{7}
н/о н/о +33.0 -0.7 12 +30 +30 жарко 996.9 997.0
03 19.07 З 3-5
{5}
н/о н/о +32.5 +1.2 14 +29 +29 жарко 998.1 998.0
06 19.07 СЗ 3-5
{7}
н/о н/о +42.6 +1.8 8 +39 +39 очень
жарко
998.3 998.0
09 19.07 СВ 4-7
{9}
н/о н/о +42.3 +9.5 14 +40 +40 очень
жарко
997.7 998.0
12 19.07 В 5-9
{10}
н/о н/о +41.5 +10.9 16 +40 +40 очень
жарко
996.7 997.0

 

Местоположение метеостанции Nuwasib (Кувейт): широта 28.50 долгота 48.75 высота над уровнем моря 2 м.

В архиве по умолчанию представлена погода в Nuwasib за последнюю неделю. Архивные данные за месяц целиком и за предыдущие месяцы, начиная с января 2011 года, Вы можете получить, выбрав интересующий диапазон дат из раскрывающегося списка и нажав кнопку "Ввод!".


*Определитесь, кто Вы:
робот инопланетянин человек

Внимание! Время в таблицах - всемирное. Для получения местного времени необходимо прибавить поправку, которая в Nuwasib равна 3 ч.

Смотрите также архив погоды в соседних городах и на ближайших метеорологических станциях:

Погода в Umm-Al-Maradim (Кувейт) (22 км)
Погода в Juluiah Port (Кувейт) (62 км)
Погода в Al-Wafra (Кувейт) (68 км)
Погода в Kuwait (Кувейт) (110 км)
Погода в Al-Shuaiba (Кувейт) (114 км)
Погода в Kuwait City (Кувейт) (115 км)
Погода в Failaka Island (Кувейт) (117 км)
Погода в Experimental Farm (Кувейт) (118 км)
Погода в Sulaibiya (Кувейт) (132 км)
Погода в Minagish (Кувейт) (135 км)

Пояснения к столбцам:

Ветер - указаны скорость ветра в м/с - средняя за 10 мин, порывы в срок и между сроками (в фигурных скобках) и направление, откуда дует ветер: С - северный, СВ - северо-восточный, В - восточный, ЮВ - юго-восточный, Ю - южный, ЮЗ - юго-западный, З - западный, СЗ - северо-западный.
Видимость - горизонтальная дальность видимости в метрах или километрах. При видимости от 1 до 10 км при отсутствии осадков обычно наблюдается дымка, при ухудшении видимости до 1 км и менее - туман. В сухую погоду видимость может ухудшаться дымом, пылью или мглою.
Явления - указаны атмосферные явления, наблюдавшиеся в срок или в последний час перед сроком; фигурными скобками обозначены явления, наблюдавшиеся между сроками (за 1-3 часа до срока); квадратными скобками обозначены град или гололедные отложения с указанием их диаметра в мм.
Облачность - указаны через наклонную черту общая и нижняя облачность в баллах и высота нижней границы облаков в метрах; квадратными скобками обозначены формы облаков: Ci - перистые, Cs - перисто-слоистые, Cc - перисто-кучевые, Ac - высококучевые, As - высокослоистые, Sc - слоисто-кучевые, Ns - слоисто-дождевые, Cu - кучевые, Cb - кучево-дождевые. Подробнее классификацию облаков см. в Атласе облаков (PDF).
T - Температура воздуха - температура, измеренная на высоте 2 м над землей.
Td - Температура точки росы - температура, при понижении до которой содержащийся в воздухе водяной пар достигнет насыщения.
f - Относительная влажность воздуха - влажноcть воздуха, измеренная на высоте 2 м над землей.
Te - Эффективная температура - температура, которую ощущает одетый по сезону человек в тени. Характеристика душности погоды. При расчете учитывается влияние влажности воздуха и скорости ветра на теплоощущения человека.
Tes - Эффективная температура на солнце - температура, которую ощущает человек, с поправкой на солнечный нагрев. Характеристика знойности погоды. Зависит от высоты солнца над горизонтом, облачности и скорости ветра. Ночью, в пасмурную погоду, а также при ветре 12 м/с и более поправка равна нулю.
P - Атмосферное давление - приведенное к уровню моря атмосферное давление.
Po - Атмосферное давление - измеренное на уровне метеостанции атмосферное давление.
Tmin - Минимальная температура - минимум температуры воздуха на высоте 2 м над землей.
Tmax - Максимальная температура - максимум температуры воздуха на высоте 2 м над землей.
R - Количество осадков - Количество выпавших осадков за период времени, мм. При наведении курсора мыши на число - период времени, за который выпало указанное количество осадков.
R24 - Количество осадков - Количество выпавших осадков за 24 часа, мм.
S - Снежный покров - Высота снежного покрова, см. При наведении курсора мыши на число - состояние снежного покрова и степень покрытия местности в баллах.